Terminal Aerodrome Forecast
Issued by NWS

Home | Current Version | Previous Version | Graphics & Text | Print | Product List | Glossary On
Versions: 1 2 3 4 5 6 7 8 9 10 11 12 13 14 15 16 17 18 19 20 21 22 23 24 25 26 27
874
FTUS45 KGGW 270526
TAFGDV
TAF
KGDV 270526Z 2706/2806 03006KT 6SM -RA OVC005
     FM272100 05013KT P6SM -RA OVC015
     FM280000 07011KT P6SM -RASN OVC010
      AMD LTD TO CLD VIS AND WIND=

USA.gov is the U.S. government's official web portal to all federal, state and local government web resources and services.